STARLINK-1265, 45406

Orbit data source: Space-Track

STARLINK-1265, 45406 is a payload satellite owned by SpaceX/Seattle (US) in LEO that was launched on Wed, 18 Mar 2020 UTC via an FALCON 9 launch vehicle from the Air Force Eastern Test Range (AFETR). Payload-class satellites include a variety of spacecraft equipped with specific instruments for various scientific and technological missions. These include communications satellites like Starlink; space stations such as the ISS; scientific satellites like the Hubble; Earth observation satellites from companies like Planet Labs, Umbra, and HawkEye 360; GPS; miniature CubeSats for education and research; and military/defense satellites.

Loading next visibility...
Identifier
45406, 2020-019AY
Orbit
LEO
Last TLE update
13 hours ago
Origin
Manufacturer
SpaceX/Seattle
Mission
Operational Commercial Communications
Bus & Motor
STARLINK, Unknown motor
Mass
260 kg wet, ~248 kg dry
Launch date (UTC)
2020-03-18 (5 years ago)
Launch vehicle
FALCON 9
Launch site
Air Force Eastern Test Range (AFETR)
Object type
Payload
Rocket body
Debris
Shape & HBR
Box + 1 Pan, 8.86 m
Radar Cross Section
13.562 m², Large (>1 m²)

Expand to show TLE details & history

TLE from 13 hours ago
0 STARLINK-1265
1 45406U 20019AY  25181.72401642 -.00000405  00000-0 -83001-5 0  9992
2 45406  53.0537 187.7364 0001046  75.4654 284.6451 15.06392135291885
Epoch: 2025-06-30T17:22Z
TLE epoch observation values (Epoch: 2025-06-30T17:22:35.018Z)
Latitude
-0.00003°
Longitude
8.06075°
Altitude
547.932 km
Speed
7.589 km/s
True Right ascension
12h 30m 56s
True Declination
0° 00' 00"
Sunlit
Object was in daylight at epoch
Visualization orbit readout
Latitude
40.66509°
Longitude
45.6153°
Altitude
550.292 km
Speed
7.592 km/s
Apparent Right ascension
10h 50m 08s
Apparent Declination
6° 14' 19"
Sunlit
Object is in daylight
Visualization observer readout
Local Sidereal Time
17:59:05
Azimuth
286.008° WNW
Elevation
-8.988°
Doppler factor
1
Orbital elements
Apogee altitude
548.231 km
Perigee altitude
546.782 km
Semi-major axis
6,925.644 km
Eccentricity
0.0001
Inclination
53.0537°
RAAN
187.7364°
Arg. of periapsis
75.4654°
True anomaly
Unknown
Mean anomaly
284.6451°
Eccentric anomaly
Unknown
Mean motion
3.76576 °/min
Orbital period
95.6 mins
BSTAR
-0.0000083001
Loading maneuver chart data...
Loading SW <> Apogee altitude chart data...
Loading historical data...
Loading historical data...
Loading historical data...
Loading historical data...
Loading historical data...
Loading historical data...
Loading historical data...

STARLINK-1265 Visibility forecast

Observer location: undefined°, undefined°

Span
Click to sort rows by Start time (UTC) header in descending order
Start Az.
Max El. time (UTC)
Max El. Az.
Max El.
End time (UTC)
End Az.
4 mins2025-07-01 08:09:18.784Z349.888° N2025-07-01 08:11:18.784Z26.927° NE17.63°2025-07-01 08:13:18.784Z59.112° ENE
6 mins2025-07-01 09:48:18.784Z316.765° NNW2025-07-01 09:51:18.784Z71.534° E42.606°2025-07-01 09:54:18.784Z121.048° SE
6 mins2025-07-02 03:00:18.784Z231.697° WSW2025-07-02 03:03:18.784Z15.705° NNE44.708°2025-07-02 03:06:18.784Z48.865° ENE
4 mins2025-07-02 04:41:18.784Z304.151° NW2025-07-02 04:43:18.784Z341.83° N19.317°2025-07-02 04:45:18.784Z17.538° NNE
|